Location: Olsztyn
(53.7767°N, 20.4765°E)
Time: 18:25:30
(UTC+02:00)

A-11 Canister half - Pass Details

Date: 21 July 2024
Orbit: 1524 x 1684 km, 47.3° (Epoch: 17 May)

Event Time Altitude Azimuth Distance (km) Brightness Sun altitude
Rises 03:15:26 0° 169° (S) 4,913 11.2 -9.0°
Reaches altitude 10° 03:21:54 10° 139° (SE) 3,905 11.0 -8.5°
Maximum altitude 03:24:34 11° 123° (ESE) 3,786 11.1 -8.2°
Drops below altitude 10° 03:27:13 10° 107° (ESE) 3,882 11.4 -8.0°
Sets 03:33:31 0° 78° (ENE) 4,833 12.5 -7.4°
